This demonstration page uses our WeatherBlox Daily Observations layout. Learn more.

Hourly Observations for January 5, 2016

Temp ( °F °C ) Dew Point ( °F °C ) Humidity (%) Winds ( mph kmh ) Pressure ( in mb ) Visibility ( mi km ) Precip ( " mm )
12:15 am 00:15 Cloudy with Mist and Fog 23 -5 21 -6 93 93 S 16 26 30.27 1025 5 8.04672 0 0
12:35 am 00:35 Cloudy with Mist and Fog 23 -5 21 -6 93 93 S 16 26 30.27 1025 5 8.04672 0 0
12:55 am 00:55 Cloudy with Mist and Fog 23 -5 23 -5 100 100 S 15 24 30.27 1025 5 8.04672 0 0
1:15 am 01:15 Cloudy with Mist and Fog 23 -5 23 -5 100 100 S 15 24 30.27 1025 4 6.437376 0 0
1:35 am 01:35 Cloudy with Mist and Fog 23 -5 23 -5 100 100 S 17 28 30.27 1025 3 4.828032 0 0
1:55 am 01:55 Cloudy with Mist and Fog 23 -5 23 -5 100 100 S 16 26 30.27 1025 3 4.828032 0 0
2:15 am 02:15 Cloudy with Mist and Fog 25 -4 23 -5 93 93 S 15 24 30.27 1025 3 4.828032 0 0
2:35 am 02:35 Cloudy with Mist and Fog 25 -4 23 -5 93 93 S 12 19 30.27 1025 3 4.828032 0 0
2:55 am 02:55 Cloudy with Mist and Fog 25 -4 23 -5 93 93 S 14 22 30.27 1025 3 4.828032 0 0
3:15 am 03:15 Cloudy with Mist and Fog 25 -4 23 -5 93 93 SSE 15 24 30.27 1025 3 4.828032 0 0
3:35 am 03:35 Cloudy with Mist and Fog 25 -4 23 -5 93 93 SSE 12 19 30.27 1025 3 4.828032 0 0
3:55 am 03:55 Cloudy with Mist and Fog 25 -4 23 -5 93 93 S 15 24 30.27 1025 3 4.828032 0 0
4:15 am 04:15 Cloudy with Mist and Fog 25 -4 23 -5 93 93 S 16 26 30.24 1024 3 4.828032 0 0
4:35 am 04:35 Cloudy with Mist and Fog 25 -4 23 -5 93 93 S 14 22 30.24 1024 3 4.828032 0 0
4:55 am 04:55 Cloudy with Mist and Fog 25 -4 23 -5 93 93 S 16 26 30.24 1024 3 4.828032 0 0
5:15 am 05:15 Cloudy with Mist and Fog 25 -4 23 -5 93 93 S 14 22 30.21 1023 4 6.437376 0 0
5:35 am 05:35 Cloudy with Mist and Fog 25 -4 23 -5 93 93 S 13 20 30.21 1023 3 4.828032 0 0
5:55 am 05:55 Cloudy with Mist and Fog 25 -4 23 -5 93 93 S 15 24 30.21 1023 2.5 4.02336 0 0
6:15 am 06:15 Cloudy with Mist and Fog 25 -4 23 -5 93 93 S 13 20 30.21 1023 3 4.828032 0 0
6:35 am 06:35 Cloudy with Mist and Fog 25 -4 23 -5 93 93 S 13 20 30.21 1023 4 6.437376 0 0
6:55 am 06:55 Cloudy with Mist and Fog 25 -4 23 -5 93 93 S 16 26 30.21 1023 5 8.04672 0 0
7:15 am 07:15 Cloudy 25 -4 23 -5 93 93 S 12 19 30.21 1023 7 11.265408 0 0
7:35 am 07:35 Cloudy 23 -5 23 -5 100 100 S 13 20 30.21 1023 7 11.265408 0 0
7:55 am 07:55 Cloudy 23 -5 23 -5 100 100 S 9 15 30.21 1023 7 11.265408 0 0
8:15 am 08:15 Mostly Cloudy 23 -5 21 -6 93 93 S 13 20 30.21 1023 7 11.265408 0 0
8:35 am 08:35 Partly Cloudy with Mist and Fog 23 -5 23 -5 100 100 S 13 20 30.21 1023 5 8.04672 0 0
8:55 am 08:55 Sunny 25 -4 23 -5 93 93 S 15 24 30.21 1023 7 11.265408 0 0
9:15 am 09:15 Sunny 25 -4 23 -5 93 93 SSE 14 22 30.21 1023 7 11.265408 0 0
9:35 am 09:35 Sunny 25 -4 23 -5 93 93 S 16 26 30.21 1023 7 11.265408 0 0
9:55 am 09:55 Sunny 27 -3 25 -4 93 93 S 14 22 30.21 1023 7 11.265408 0 0
10:15 am 10:15 Sunny 28 -2 25 -4 86 86 S 16 26 30.15 1021 7 11.265408 0 0
10:35 am 10:35 Sunny 28 -2 25 -4 86 86 S 17 28 30.15 1021 10 16.09344 0 0
10:55 am 10:55 Sunny 30 -1 27 -3 86 86 S 18 30 30.15 1021 10 16.09344 0 0
11:15 am 11:15 Sunny 30 -1 25 -4 80 80 S 15 24 30.15 1021 10 16.09344 0 0
11:35 am 11:35 Sunny 32 0 27 -3 80 80 S 15 24 30.12 1020 10 16.09344 0 0
11:55 am 11:55 Sunny 32 0 27 -3 80 80 S 20 31 30.09 1019 10 16.09344 0 0
12:15 pm 12:15 Sunny 34 1 27 -3 75 75 S 17 28 30.09 1019 10 16.09344 0 0
12:35 pm 12:35 Sunny 36 2 28 -2 75 75 S 18 30 30.06 1018 10 16.09344 0 0
12:55 pm 12:55 Sunny 39 4 28 -2 65 65 S 23 37 30.03 1017 10 16.09344 0 0
1:15 pm 13:15 Sunny 39 4 28 -2 65 65 S 18 30 30.03 1017 10 16.09344 0 0
1:35 pm 13:35 Sunny 41 5 28 -2 61 61 SSW 23 37 30 1016 10 16.09344 0 0
1:55 pm 13:55 Sunny 43 6 28 -2 57 57 S 24 39 29.97 1015 10 16.09344 0 0
2:15 pm 14:15 Sunny 45 7 28 -2 53 53 SSW 25 41 29.97 1015 10 16.09344 0 0
2:35 pm 14:35 Sunny 45 7 28 -2 53 53 S 24 39 29.97 1015 10 16.09344 0 0
2:55 pm 14:55 Sunny 43 6 27 -3 53 53 S 15 24 29.97 1015 10 16.09344 0 0
3:15 pm 15:15 Sunny 43 6 27 -3 53 53 S 15 24 29.97 1015 10 16.09344 0 0
3:35 pm 15:35 Sunny 43 6 28 -2 57 57 S 20 31 29.94 1014 10 16.09344 0 0
3:55 pm 15:55 Sunny 46 8 27 -3 46 46 S 18 30 29.94 1014 10 16.09344 0 0
4:15 pm 16:15 Sunny 43 6 27 -3 53 53 S 17 28 29.94 1014 10 16.09344 0 0
4:35 pm 16:35 Sunny 41 5 27 -3 57 57 S 14 22 30 1016 10 16.09344 0 0
4:55 pm 16:55 Sunny 41 5 27 -3 57 57 S 14 22 30 1016 10 16.09344 0 0
5:15 pm 17:15 Sunny 39 4 27 -3 61 61 S 13 20 30 1016 10 16.09344 0 0
5:35 pm 17:35 Clear 39 4 27 -3 61 61 S 15 24 30 1016 10 16.09344 0 0
5:55 pm 17:55 Clear 37 3 27 -3 65 65 S 9 15 30 1016 10 16.09344 0 0
6:15 pm 18:15 Clear 37 3 27 -3 65 65 S 9 15 30 1016 10 16.09344 0 0
6:35 pm 18:35 Clear 36 2 27 -3 70 70 S 13 20 30.03 1017 10 16.09344 0 0
6:55 pm 18:55 Clear 36 2 27 -3 70 70 SSE 13 20 30.03 1017 10 16.09344 0 0
7:15 pm 19:15 Clear 36 2 28 -2 75 75 SSE 13 20 30.03 1017 10 16.09344 0 0
7:35 pm 19:35 Clear 36 2 28 -2 75 75 SSE 12 19 30.03 1017 10 16.09344 0 0
7:55 pm 19:55 Clear 36 2 28 -2 75 75 SSE 17 28 30.03 1017 10 16.09344 0 0
8:15 pm 20:15 Clear 36 2 28 -2 75 75 SSE 18 30 30.03 1017 10 16.09344 0 0
8:35 pm 20:35 Clear 36 2 28 -2 75 75 S 16 26 30.03 1017 10 16.09344 0 0
8:55 pm 20:55 Partly Cloudy 34 1 28 -2 81 81 S 17 28 30.03 1017 10 16.09344 0 0
9:15 pm 21:15 Mostly Cloudy 34 1 28 -2 81 81 S 17 28 30.03 1017 10 16.09344 0 0
9:35 pm 21:35 Cloudy 34 1 28 -2 81 81 S 18 30 30.03 1017 10 16.09344 0 0
9:55 pm 21:55 Cloudy with Light Drizzle 34 1 30 -1 87 87 S 17 28 30.03 1017 10 16.09344 0 0
10:15 pm 22:15 Mostly Cloudy 34 1 30 -1 87 87 S 15 24 30.03 1017 10 16.09344 0 0
10:35 pm 22:35 Mostly Cloudy 34 1 30 -1 87 87 S 15 24 30.03 1017 10 16.09344 0 0
10:55 pm 22:55 Mostly Cloudy 34 1 30 -1 87 87 S 15 24 30.03 1017 10 16.09344 0 0
11:15 pm 23:15 Mostly Cloudy 34 1 30 -1 87 87 S 15 24 30.03 1017 10 16.09344 0 0
11:35 pm 23:35 Cloudy 34 1 30 -1 87 87 S 16 26 30.03 1017 10 16.09344 0 0
11:55 pm 23:55 Cloudy 34 1 32 0 93 93 S 16 26 30.03 1017 10 16.09344 0 0

Powered by AerisWeather